Location: New Plymouth
(39.0670°S, 174.0830°E)
Time: 09:53:07
(UTC+12:00)

ISS - Pass Details

Date: 26 May 2021
Orbit: 417 x 422 km, 51.6° (Epoch: 17 June)

Event Time Altitude Azimuth Distance (km) Brightness Sun altitude
Exits shadow 05:48:07 32° 182° (S) 761 -2.6 -19.2°
Drops below altitude 10° 05:50:38 10° 142° (SE) 1,535 -0.6 -18.8°
Sets 05:52:52 0° 133° (SE) 2,406 0.6 -18.3°
